Location: Ivychurch
(51.0000°N, 0.8833°E)
Time: 10:57:48
(UTC+00:00)

Daily predictions for brighter satellites

Satellite Brightness Start Highest point End
(mag) Time Altitude Azimuth Time Altitude Azimuth Time Altitude Azimuth
ARGOS Delta rocket 4.1 20:28:38 10° SSE 20:33:29 56° ENE 20:38:06 10° N
NOSS 2-1 (D) 4.4 20:31:48 10° NNW 20:35:07 37° NE 20:39:24 10° ESE
Cosmos 1340 4.1 20:36:19 10° NNE 20:38:56 20° ENE 20:41:33 10° ESE
Sich 1 4.1 20:36:43 10° N 20:40:40 32° ENE 20:44:36 10° SE
Okean O Rocket 3.4 20:37:45 10° SSW 20:41:42 31° W 20:45:39 10° NNW
SPOT 3 Rocket 4.0 20:36:50 10° SE 20:41:45 49° ENE 20:46:42 10° N
CZ-4 R/B 4.3 20:41:02 10° WSW 20:42:28 12° W 20:43:53 10° WNW
USA 307 -0.4 20:42:18 10° W 20:43:06 37° SSW 20:43:28 22° SSE
Cosmos 2221 3.1 20:41:04 10° SSW 20:45:20 61° WNW 20:49:39 10° N
Cosmos 2292 Rocket 4.3 20:40:29 10° SSW 20:46:41 77° W 20:51:23 10° N
Meteor 1-27 Rocket 4.5 20:41:59 10° SSE 20:46:50 33° E 20:51:44 10° NNE
USA 281 3.7 20:44:06 10° SE 20:50:26 53° NE 20:56:49 10° NNW
Cosmos 1766 Rocket 4.5 20:46:19 10° NNW 20:50:38 49° W 20:54:56 10° SSW
Ariane Rocket 3.1 20:48:47 10° SSE 20:53:48 66° ENE 20:58:52 10° N
MetOp-B 4.5 20:48:38 10° S 20:53:57 67° WSW 20:59:19 10° NNW
Terra 1.8 21:00:00 10° SSE 21:04:43 90° NNE 21:09:28 10° NNW
Cosmos 1452 Rocket 3.8 21:00:47 10° NNW 21:05:59 64° WSW 21:11:09 10° S
Cosmos 1340 Rocket 3.7 21:03:13 11° SSE 21:06:38 32° E 21:10:12 10° NNE
Cosmos 1743 Rocket 3.9 21:02:43 10° N 21:07:01 51° ENE 21:10:55 12° SSE
MOS 1 Rocket 3.7 21:02:05 10° SSE 21:07:13 70° ENE 21:12:35 10° N
Cosmos 921 Rocket 4.3 21:03:08 10° SW 21:07:27 45° WNW 21:11:47 10° NNE
NOSS 2-1 (C) 3.7 21:08:06 10° NW 21:11:42 64° NE 21:16:11 12° SE
USA 234 4.1 21:05:24 10° ENE 21:11:46 55° N 21:18:06 10° W
Lacrosse 5 rocket 3.0 21:08:12 10° WNW 21:12:13 37° N 21:16:08 10° ENE
Cosmos 468 4.5 21:07:04 10° SSW 21:12:15 74° ESE 21:17:28 10° NNE
CZ-4C R/B 4.5 21:09:54 10° N 21:13:33 45° WNW 21:17:19 10° SW
ARIANE 5 R/B 4.3 21:13:03 10° ESE 21:16:15 21° ENE 21:19:26 10° NNE
Cosmos 1408 Rocket 3.7 21:12:20 10° NNW 21:16:49 79° W 21:21:15 10° S
ERS-1 Rocket 3.4 21:13:05 10° S 21:18:03 62° WSW 21:23:04 10° NNW
Meteor 2-10 4.1 21:13:42 10° NNW 21:19:17 81° ENE 21:24:13 12° SSE
Cosmos 2279 Rocket 4.4 21:17:46 10° NNW 21:23:55 64° W 21:30:01 10° S
Spot 1 4.3 21:20:30 10° NNE 21:24:27 46° E 21:28:05 12° S
USA 245 3.7 21:22:28 10° SSW 21:24:30 29° W 21:26:41 10° NNW
SL-8 R/B 3.7 21:20:00 10° WSW 21:24:40 61° S 21:29:22 10° E
Cosmos 1626 3.9 21:24:36 12° ESE 21:25:41 14° E 21:27:24 10° NE
Nadezhda 4 Rocket 4.1 21:21:26 10° S 21:27:31 61° E 21:33:41 10° NNE
SPOT 5 4.4 21:28:49 10° SSW 21:32:42 28° W 21:36:30 10° NW
Meteor 1-10 Rocket 4.4 21:28:19 10° SSW 21:34:01 75° WNW 21:39:40 10° N
SL-16 R/B 4.4 21:29:36 10° WSW 21:34:33 30° NW 21:39:33 10° NNE
Meteor 1-19 Rocket 4.3 21:29:21 10° S 21:35:12 75° E 21:40:55 10° NNE
Cosmos 1603 3.7 21:31:10 10° SSW 21:36:52 90° ESE 21:42:38 10° NNE
Cosmos 1833 Rocket 4.4 21:35:25 13° ESE 21:37:31 15° E 21:40:38 10° ENE
Cosmos 2369 Rocket 4.3 21:34:06 10° NW 21:37:59 20° W 21:41:52 10° SW
Okean 1 3.4 21:34:26 10° SSW 21:38:17 75° WNW 21:42:11 10° N
Cosmos 1151 Rocket 3.2 21:37:10 15° S 21:40:38 58° E 21:44:55 10° NNE
Cosmos 1975 3.3 21:36:50 10° N 21:40:39 47° ENE 21:43:09 19° SE
Meteor 1-11 Rocket 4.3 21:36:19 10° NNW 21:41:50 55° W 21:47:27 10° S
Meteor 2-17 Rocket 4.4 21:41:50 10° S 21:47:51 81° E 21:53:57 10° NNE
Cosmos 1302 Rocket 4.2 21:43:33 10° NNW 21:48:43 65° WSW 21:52:42 17° S
Cosmos 1536 4.2 21:45:50 10° NNW 21:49:20 32° W 21:52:51 10° SSW
Cosmos 1992 Rocket 4.1 21:44:10 10° NNW 21:49:25 71° ENE 21:53:10 19° SE
Cosmos 1726 4.2 21:48:34 10° NW 21:50:41 17° W 21:52:48 10° SW
Cosmos 1500 Rocket 4.3 21:47:29 10° NNW 21:51:38 46° W 21:55:23 12° SSW
USA 306 4.3 21:50:14 10° W 21:53:09 21° SW 21:54:47 16° S
Cosmos 1656 3.7 21:48:36 10° NNW 21:54:05 71° ENE 21:58:06 19° SE
Cosmos 1766 4.3 21:53:59 10° N 21:57:22 31° ENE 21:59:18 19° ESE
Cosmos 1805 3.1 21:55:36 10° NNW 21:59:20 84° WSW 22:01:33 23° S
Lacrosse 4 Rocket 1.3 21:55:48 10° NNW 21:59:54 80° NE 22:02:26 23° SE
Cosmos 1733 4.0 21:57:22 10° NNW 22:00:41 40° W 22:03:12 15° SSW
Cosmos 1470 Rocket 4.4 21:57:26 10° N 22:01:37 38° ENE 22:04:11 20° SE
Cosmos 1805 Rocket 4.4 21:58:00 10° NNW 22:02:11 44° W 22:05:48 13° SSW
H-2A R/B 3.6 22:02:15 18° ESE 22:04:49 35° ENE 22:08:43 10° N
IRIDIUM 104 4.3 22:00:30 10° N 22:05:46 78° E 22:09:23 20° S
Cosmos 2026 Rocket 4.1 22:02:10 17° S 22:07:00 64° E 22:13:10 10° NNE
Cosmos 1470 4.4 22:04:36 10° NNE 22:07:29 21° ENE 22:09:19 15° ESE
Cosmos 1633 Rocket 3.1 22:04:29 10° N 22:08:54 68° ENE 22:11:28 24° SSE
USA 59 Rocket 0.5 22:06:21 10° NW 22:10:08 52° SW 22:13:06 22° SSE
Cosmos 1666 Rocket 3.5 22:06:40 10° N 22:11:00 84° ENE 22:13:32 24° SSE
Landsat 5 3.6 22:07:21 10° N 22:11:06 62° WNW 22:14:26 13° SSW
NOSS 3-3 (A) 4.2 22:08:04 16° S 22:12:04 43° ESE 22:17:58 10° NE
NOSS 2-1 (E) 4.0 22:08:26 10° NW 22:12:14 50° SW 22:15:08 23° SSE
Cosmos 1340 3.8 22:10:12 10° NNW 22:13:14 31° W 22:15:25 16° SSW
IRIDIUM 114 4.3 22:09:39 10° N 22:14:54 89° W 22:18:30 21° S
CZ-2C R/B 3.8 22:16:49 10° NNE 22:21:16 56° ESE 22:23:38 25° S
Cosmos 220 Rocket 3.9 22:18:09 17° SSW 22:21:27 83° ESE 22:25:48 10° NNE
Cosmos 44 Rocket 3.8 22:16:43 10° NW 22:21:38 56° NE 22:25:16 17° ESE
IRIDIUM 103 4.4 22:18:49 10° N 22:24:04 76° W 22:27:38 21° S
NOSS 2-1 (D) 4.4 22:21:11 10° WNW 22:24:51 38° SW 22:27:17 23° S
Cosmos 1818 3.7 22:21:17 15° SSW 22:25:44 56° ESE 22:31:07 10° NE
NOSS 3-4 (A) 4.2 22:20:10 10° NW 22:26:41 59° NE 22:34:14 10° ESE
NOSS 3-4 (C) 4.2 22:20:16 10° NW 22:26:47 59° NE 22:34:20 10° ESE
NOSS 8 (A) 4.5 22:23:34 10° SW 22:27:22 75° NW 22:30:25 10° NE
ALOS 2 3.8 22:26:21 18° ESE 22:28:54 34° ENE 22:32:52 10° N
BREEZE-M DEB (TANK) 4.5 22:31:06 21° ESE 22:31:06 21° ESE 22:34:40 10° E
Cosmos 1697 Rocket 3.0 22:26:01 10° NNW 22:31:37 62° NE 22:35:28 20° SE
USA 281 4.0 22:30:22 17° S 22:35:05 41° WSW 22:41:18 10° NW
Cosmos 1553 Rocket 4.0 22:30:03 10° N 22:36:09 72° ENE 22:39:57 24° SSE
GEOS 3 Rocket 3.6 22:31:34 10° NE 22:36:48 87° NW 22:41:56 10° SW
Meteor 2-4 Rocket 3.9 22:33:19 16° SSW 22:38:08 78° WNW 22:44:07 10° N
Cosmos 1674 3.3 22:37:26 31° SE 22:38:17 36° E 22:41:32 10° NNE
Cosmos 1980 Rocket 3.2 22:34:27 10° NNW 22:39:50 40° NE 22:44:38 13° ESE
NOSS 3-3 (C) 3.8 22:38:08 15° SSW 22:42:37 63° SE 22:49:00 10° NE
Terra 4.2 22:40:43 10° WSW 22:43:00 13° W 22:45:18 10° WNW
MINOTAUR 4 R/B 3.5 22:40:47 10° NNE 22:43:46 86° WNW 22:44:36 44° SSW
Cosmos 1066 Rocket 4.3 22:41:55 24° S 22:45:37 75° E 22:51:30 10° NNE
Lacrosse 5 rocket 2.5 22:47:11 10° WNW 22:51:15 42° NNE 22:55:10 10° E
ARIANE 5 R/B 2.9 22:50:12 28° SSW 22:52:18 56° W 22:56:34 10° NNW
Cosmos 1908 3.8 22:49:44 10° N 22:53:08 40° ENE 22:54:20 30° ESE
USA 234 3.8 22:47:54 10° E 22:54:20 60° NNE 23:00:45 10° WNW
Cosmos 1269 Rocket 4.0 22:54:32 19° SSW 22:58:21 85° WNW 23:03:39 10° NNE
Cosmos 1092 Rocket 4.4 22:53:12 15° SSW 22:58:22 61° WNW 23:04:40 10° N
Cosmos 1626 2.8 22:57:24 24° SW 22:58:52 40° WNW 23:01:58 10° N
Cosmos 2251 Rocket 4.4 23:01:48 25° SE 23:03:42 33° ESE 23:08:24 10° NE
PSLV R/B 4.1 23:01:27 10° N 23:05:31 69° WNW 23:07:35 27° SSW
SL-8 R/B 3.7 23:02:12 10° W 23:06:53 58° SSW 23:10:29 17° ESE
Cosmos 1707 2.7 23:09:21 42° SSE 23:10:18 59° E 23:13:55 10° NNE
BREEZE-M DEB (TANK) 2.6 23:08:22 10° W 23:14:08 12° ESE 23:14:32 10° ESE
Cosmos 1441 Rocket 3.6 23:09:53 10° N 23:13:23 48° ENE 23:14:30 34° SE
SL-16 R/B 4.2 23:09:15 10° NNW 23:13:52 25° NE 23:18:28 10° E
Cosmos 2266 Rocket 4.1 23:12:28 27° SSE 23:15:50 62° E 23:22:02 10° NNE
Spot 4 3.9 23:13:59 32° S 23:16:10 69° WSW 23:20:57 10° NNW
Cosmos 1842 3.0 23:15:46 41° SSW 23:16:58 86° WNW 23:20:40 10° N
Cosmos 1833 Rocket 2.6 23:17:04 24° SSW 23:20:33 82° ESE 23:26:12 10° NNE
Cosmos 2082 Rocket 3.2 23:23:06 24° SE 23:25:11 31° ESE 23:30:09 10° NE
Cosmos 1300 3.8 23:26:21 10° N 23:29:36 32° ENE 23:30:52 25° ESE
Cosmos 1515 Rocket 4.0 23:28:42 27° SW 23:30:51 54° WNW 23:35:08 10° N
Meteor 1-22 Rocket 4.2 23:25:45 10° N 23:31:05 74° ENE 23:33:54 29° SSE
KORONAS-FOTON 3.9 23:30:14 38° SW 23:31:28 65° WNW 23:35:09 10° N
Cosmos 2228 Rocket 4.1 23:31:44 26° SE 23:33:23 34° E 23:37:28 10° NNE
Meteor 1-15 Rocket 4.2 23:29:38 10° N 23:35:20 80° ENE 23:38:16 29° SSE
SL-08 ROCKET BODY 4.5 23:33:08 28° S 23:36:33 77° E 23:42:45 10° NNE
H-2A R/B 2.7 23:32:38 10° NNE 23:36:54 44° E 23:38:23 32° SE
Lacrosse 4 Rocket 3.5 23:35:26 10° WNW 23:37:38 14° WSW 23:38:21 14° WSW
Cosmos 1733 Rocket 3.9 23:33:46 10° N 23:37:55 43° ENE 23:39:58 25° SE
H-2A R/B 3.8 23:38:15 23° SW 23:39:47 29° W 23:43:33 10° NNW
Cosmos 1869 Rocket 3.5 23:36:30 10° NNW 23:40:52 73° W 23:42:30 37° S
Cosmos 1470 3.6 23:39:34 10° NNW 23:42:59 35° W 23:43:59 30° SW
SOZ 4.4 23:43:04 10° WSW 23:46:27 74° SSE 23:48:55 10° ENE
GP-B 3.1 23:50:40 10° N 23:55:06 78° E 23:56:49 37° S
Cosmos 1400 Rocket 3.1 23:54:09 38° SSE 23:55:19 54° E 23:59:13 10° NNE
